Terminal Aerodrome Forecast
Issued by NWS

Home | Current Version | Previous Version | Graphics & Text | Print | Product List | Glossary Off
Versions: 1 2 3 4 5 6 7 8 9 10 11 12 13 14 15 16 17 18 19 20 21 22 23 24 25 26 27

000
FTUS43 KDDC 260340 AAA
TAFGCK
TAF AMD
KGCK 260340Z 2604/2624 08008KT P6SM SKC
     FM261500 18015G25KT P6SM SCT150
     FM261800 18024G34KT P6SM SCT150=

USA.gov is the U.S. government's official web portal to all federal, state and local government web resources and services.